SCP
0 0 0 0 0 0 0 0 0 -0 0 0 0 0 0 0 0 0 0 0 0 0 0 0 0 0 1 0 0 0 0 0 0 0 0 0 0 0 0 0 0 0 0 0
0 0 0 0 0 0 0 0 0 0 -0 0 0 0 0 0 0 0 0 0 0 0 0 0 0 0 1 0 0 0 0 0 0 0 0 0 0 0 0 0 0 0 0 0
0 0 0 0 0 0 0 0 0 -0 0 0 0 0 0 0 0 0 0 0 0 0 0 0 0 1 0 0 0 0 0 0 0 0 0 0 0 0 0 0 0 0 0 0
0 0 0 0 0 0 0 0 -0 0 0 0 0 0 0 0 0 0 0 0 0 0 0 0 0 0 0 0 0 0 0 0 0 0 0 0 0 0 0 0 0 0 0 0
0 0 0 -0 0 0 0 0 0 0 0 0 0 0 0 0 0 0 0 0 0 0 0 0 0 0 0 0 0 0 0 0 0 0 0 0 0 0 0 0 0 0 0 0
0 0 0 0 0 0 0 0 0 0 0 0 0 0 0 0 0 0 0 0 0 0 0 0 0 0 0 0 0 0 0 0 0 0 0 0 0 0 0 0 0 0 0 0
0 0 0 0 0 0 0 0 0 0 0 0 0 0 1 0 0 0 0 0 0 0 0 0 0 0 0 0 0 0 0 0 0 0 0 0 0 0 0 0 0 0 0 0
0 0 0 0 0 0 0 0 1 0 0 0 0 1 0 0 0 1 1 1 0 0 0 0 0 0 0 0 0 0 0 0 0 0 0 0 0 0 0 0 0 0 0 0
0 0 0 0 -0 0 0 0 1 1 0 0 0 0 0 0 1 1 1 1 0 0 0 0 0 0 0 0 0 0 0 0 0 0 0 0 0 0 0 0 0 0 0 0
1 0 0 0 0 0 0 0 0 0 0 0 0 0 0 1 1 1 1 1 1 1 0 0 0 0 0 0 0 0 0 0 0 0 0 0 0 0 0 0 0 0 0 0
1 0 0 1 1 1 1 1 0 0 0 0 0 0 1 1 1 1 1 1 1 1 0 0 0 0 0 0 0 0 0 0 0 0 0 0 0 0 0 0 0 0 0 0
0 1 1 0 0 0 1 1 1 1 0 0 1 1 1 1 1 2 2 1 1 1 0 0 0 0 0 0 0 0 0 0 0 0 0 0 0 0 0 0 0 0 0 0
0 1 0 0 0 0 0 0 0 1 1 1 1 1 1 1 1 2 3 2 2 1 1 0 1 1 0 0 0 0 0 0 0 0 0 0 0 0 0 0 0 0 0 0
0 0 0 0 0 0 0 0 0 0 1 1 1 1 2 1 2 3 2 2 2 1 1 1 1 1 0 0 0 0 0 0 0 0 0 0 0 0 0 0 0 0 0 0
0 0 0 0 0 0 0 0 0 0 0 0 1 1 1 2 2 3 2 3 3 2 3 2 2 0 0 0 0 0 0 0 0 0 0 0 0 0 0 0 0 0 0 0
0 0 0 0 0 0 0 0 0 0 0 0 0 0 1 1 2 3 3 4 3 4 2 2 1 1 0 0 0 0 0 0 0 0 0 0 0 0 0 0 0 0 0 0
0 0 0 0 0 0 0 0 0 0 0 0 0 0 1 2 2 3 3 5 4 2 1 1 1 1 0 0 0 0 0 0 0 0 0 0 0 0 0 0 0 0 0 0
0 0 0 0 0 0 0 0 0 0 0 0 0 1 1 2 2 3 3 2 1 0 0 0 0 0 0 0 0 0 0 0 0 0 0 0 0 0 0 0 0 0 0 0
0 0 0 0 0 0 0 0 0 0 0 0 0 1 1 1 2 1 1 0 0 0 0 0 0 0 0 0 0 0 0 0 0 0 0 0 0 0 0 0 0 0 0 0
0 0 0 0 0 0 0 0 0 0 0 0 1 1 1 2 1 0 0 0 0 0 0 0 0 0 0 0 0 0 0 0 0 0 0 0 0 0 0 0 0 0 0 0
0 0 0 0 0 0 1 1 1 1 0 0 1 1 1 0 0 0 0 0 0 0 0 0 0 0 0 0 0 0 0 0 0 0 0 0 0 0 0 0 0 0 0 0
1 0 1 0 1 1 0 1 1 0 0 1 1 0 0 0 0 0 0 0 0 0 0 0 0 0 0 0 0 0 0 0 0 0 0 0 0 0 0 0 0 0 0 0
1 1 1 0 0 0 0 0 0 0 0 0 0 0 0 0 0 0 0 0 0 0 0 0 0 0 0 0 0 0 0 0 0 0 0 0 0 0 0 0 0 0 0 0
0 0 0 0 0 0 1 0 0 0 0 0 0 0 0 0 0 0 0 0 0 0 0 0 0 0 0 0 0 0 0 0 0 0 0 0 0 0 0 0 0 0 0 0
0 0 0 0 0 0 0 0 0 0 0 0 0 0 0 0 0 0 0 0 0 0 0 0 0 0 0 0 0 0 0 0 0 0 0 0 0 0 0 0 0 0 0 0
0 0 0 0 0 0 0 0 0 0 0 0 0 0 0 0 0 0 0 0 0 0 0 0 0 0 0 0 0 0 0 0 0 0 0 0 0 0 0 0 0 0 0 0
0 0 0 0 0 0 0 0 0 0 0 0 0 0 0 0 0 0 0 0 0 0 0 0 0 0 0 0 0 0 0 0 0 0 0 0 0 0 0 0 0 0 0 0
Wind_Speed_500mb
10 8 12 14 15 12 17 22 18 29 19 9 17 15 11 5 3 7 12 16 20 20 21 25 27 22 12 15 18 15 14 15 17 20 15 14 17 19 22 22 23 24 24 24
15 10 14 17 18 18 21 24 24 25 23 6 17 14 13 7 4 8 12 17 18 19 20 24 23 16 11 15 15 13 12 10 13 17 18 18 15 10 10 11 18 26 36 29
20 3 12 19 25 21 18 18 20 21 17 19 20 19 12 7 6 8 11 16 18 18 19 20 16 10 10 12 11 10 10 12 14 15 16 18 17 13 8 11 12 17 19 23
9 6 20 7 2 9 17 24 20 22 14 18 19 14 11 6 5 7 9 14 15 16 17 14 9 10 11 13 8 8 10 10 13 12 14 17 16 16 15 12 11 12 13 18
10 16 14 25 12 9 12 16 11 18 15 21 14 12 17 11 9 8 8 10 12 12 10 9 9 13 12 11 9 8 6 7 11 12 14 17 18 18 18 16 15 18 17 19
6 14 21 21 8 8 7 19 10 20 21 26 22 17 9 12 12 11 9 9 10 10 9 9 12 12 11 14 8 7 5 7 9 10 14 18 19 19 20 19 20 18 23 26
11 14 16 15 11 15 14 4 8 19 24 29 23 18 10 11 13 14 13 12 11 9 10 11 11 11 10 10 9 9 7 11 13 16 23 20 23 23 22 22 24 26 26 28
6 14 22 8 12 15 15 7 3 15 24 33 32 19 19 17 17 17 17 15 14 13 14 13 11 10 12 11 10 7 9 13 15 18 20 18 22 21 20 19 22 25 26 29
7 15 4 3 30 15 18 17 8 13 23 31 31 31 27 26 25 22 22 20 18 16 16 13 11 10 12 15 11 11 12 12 13 17 16 18 19 18 18 21 24 28 30 33
5 15 12 21 21 28 30 33 26 17 22 28 34 30 31 30 30 28 27 25 20 18 16 14 12 10 12 12 12 12 15 14 14 13 20 16 16 18 20 22 24 28 30 33
14 24 18 5 10 17 25 25 28 34 32 33 34 35 33 33 35 35 31 27 23 22 19 16 14 11 11 11 12 11 12 15 16 15 17 17 19 20 20 19 19 18 21 25
20 13 9 22 21 34 31 24 20 23 26 33 37 40 37 38 38 40 37 31 27 24 22 21 17 14 12 12 10 12 13 14 17 16 19 20 23 22 24 21 23 30 28 29
20 7 28 42 46 38 22 22 26 24 26 33 38 42 43 44 43 44 41 35 29 27 23 18 18 17 16 10 11 10 15 12 13 18 20 22 22 21 20 18 22 27 32 43
28 41 46 43 34 36 36 36 34 32 33 34 38 42 45 46 45 45 43 35 27 21 15 12 18 21 12 9 6 9 9 13 14 17 22 22 21 20 19 19 25 26 31 35
57 46 46 48 40 40 41 43 44 43 42 42 41 43 44 50 48 45 40 34 29 28 28 24 14 17 10 13 13 9 9 10 13 17 18 21 17 20 23 22 24 28 31 35
52 47 39 42 52 54 52 52 52 53 50 47 44 44 44 44 44 45 42 35 33 27 16 11 11 9 7 13 12 12 9 12 14 12 16 20 23 27 31 27 26 27 35 36
50 51 53 53 49 47 48 49 48 49 50 46 46 43 39 38 39 43 39 36 30 21 25 16 17 20 16 20 16 10 10 12 12 14 22 23 27 32 34 29 30 27 35 34
48 48 46 45 45 48 49 47 45 45 47 47 42 35 33 38 41 39 33 30 32 31 23 25 25 13 18 20 12 13 16 14 19 26 29 27 34 39 32 30 25 35 32 31
30 33 34 34 32 35 38 41 42 41 41 36 30 24 25 28 35 33 32 32 27 20 19 21 22 22 23 22 21 16 18 22 26 28 31 33 38 38 32 26 31 33 30 31
8 10 13 15 17 18 23 23 26 25 20 13 8 15 26 32 31 28 28 18 29 20 21 14 14 21 22 23 24 18 22 26 31 34 37 42 39 35 31 28 26 26 25 28
11 12 13 14 16 18 20 20 19 16 12 1 11 21 26 26 25 25 15 27 10 13 19 15 11 14 13 15 18 19 24 29 32 41 47 48 41 30 32 29 31 32 28 26
17 15 14 15 17 17 21 19 14 9 10 11 13 17 19 19 18 19 13 10 7 8 1 3 4 13 11 15 12 18 21 30 39 46 44 43 40 39 33 33 32 28 24 23
16 18 18 16 17 15 15 14 13 11 16 14 9 4 10 17 18 9 14 3 6 6 8 6 7 7 5 7 13 19 25 32 36 36 38 35 35 37 31 30 29 21 22 24
18 18 17 15 12 6 4 2 4 6 5 8 19 15 14 17 14 8 12 11 16 15 9 12 6 3 12 13 17 22 29 32 34 32 35 35 34 35 35 35 32 26 29 29
18 18 15 13 11 7 7 6 9 14 19 24 18 9 11 14 21 22 21 15 12 3 6 8 7 12 13 15 18 22 25 28 27 30 34 36 39 40 39 38 32 35 27 30
15 11 6 11 9 12 16 20 25 24 19 13 25 33 35 33 34 16 12 7 11 12 7 9 14 19 19 22 22 23 25 27 31 33 38 39 41 43 38 36 39 39 33 28
10 7 9 14 14 9 6 9 16 31 37 38 33 31 32 25 14 6 9 6 0 6 11 16 23 28 27 27 25 27 26 29 34 43 42 38 40 44 43 43 44 38 46 49
Wind_Direction_500mb
274 263 241 277 268 216 248 280 276 303 316 155 185 181 172 165 352 347 352 350 352 348 347 346 347 347 351 6 357 6 5 6 22 16 2 326 305 288 276 290 278 260 261 266
255 229 240 251 263 261 272 281 281 274 273 151 170 178 187 190 255 322 347 344 342 338 338 341 340 336 341 0 354 358 358 5 2 3 7 12 9 349 302 279 262 260 282 274
266 172 254 251 260 285 276 275 265 269 334 154 178 202 199 204 256 318 329 333 335 332 335 331 335 331 335 348 338 344 0 353 358 19 27 24 22 23 0 314 292 295 292 296
287 219 246 340 73 281 280 281 265 256 266 194 193 195 203 218 289 295 311 324 327 327 327 320 316 314 323 327 316 336 355 9 26 30 23 17 16 10 2 341 323 308 298 287
245 242 284 285 184 226 233 290 236 246 210 194 187 202 222 226 235 257 285 305 314 316 313 303 295 309 313 311 298 325 345 19 17 2 348 351 352 354 347 340 326 314 304 299
169 274 279 305 126 186 196 265 144 206 203 198 193 231 143 184 220 233 253 274 292 290 294 301 292 302 302 297 286 310 320 350 344 340 336 330 328 326 324 322 321 308 299 296
247 276 289 335 158 162 239 28 127 193 207 203 210 262 132 182 211 222 237 254 267 266 286 283 275 284 294 292 277 281 294 328 324 324 331 329 329 323 317 312 306 303 301 301
219 268 282 58 159 241 2 339 266 212 210 211 220 220 210 214 221 227 234 247 254 256 274 269 269 276 291 286 264 298 314 317 317 319 324 320 330 330 320 317 320 315 315 318
272 306 47 237 252 262 281 294 306 276 232 222 224 228 229 230 229 232 236 245 247 252 266 267 267 273 288 292 280 277 301 305 313 321 323 330 334 334 338 325 324 322 322 320
281 269 273 285 292 269 277 266 280 279 263 236 234 241 239 239 236 236 238 239 242 245 254 255 257 273 280 280 280 276 287 299 309 317 324 330 338 325 327 326 324 323 328 330
255 266 290 136 12 350 329 300 279 269 273 244 241 248 248 247 243 241 239 238 232 237 242 240 250 269 273 277 273 269 273 285 298 309 309 319 322 322 331 325 332 347 341 342
273 12 305 297 313 320 312 311 302 285 267 253 246 251 253 251 248 241 235 232 229 232 230 231 239 256 265 261 260 265 271 290 295 307 312 318 320 324 323 331 350 354 355 349
261 278 301 292 297 299 282 297 300 288 273 264 257 256 257 255 250 241 231 227 225 231 231 238 253 265 269 258 273 262 280 293 308 314 316 320 316 318 319 324 333 337 338 335
273 296 290 287 296 293 290 299 301 292 283 273 266 261 257 254 248 237 228 224 220 220 227 249 274 277 271 303 326 305 287 302 322 317 315 316 318 311 310 314 321 329 339 339
275 277 273 278 286 286 289 292 289 287 287 282 277 269 262 252 243 231 220 211 203 202 202 196 234 272 299 344 330 292 301 310 314 316 314 315 311 308 301 309 315 321 329 331
272 274 270 273 283 287 287 289 286 286 282 282 279 272 261 249 240 222 209 195 193 194 221 201 186 224 327 329 282 282 298 309 320 322 324 322 320 309 305 308 311 319 325 329
273 271 277 282 283 285 286 285 282 279 279 278 279 278 260 233 217 210 194 191 187 177 159 170 188 219 278 240 249 264 280 288 322 322 322 318 320 315 309 309 310 324 322 321
262 265 269 273 280 286 289 290 290 290 288 286 282 270 243 219 206 193 169 158 158 167 220 262 236 235 234 225 248 269 286 286 297 303 301 307 318 316 306 303 302 314 319 320
261 261 268 278 286 288 291 296 300 299 298 293 280 251 222 209 191 173 162 166 169 250 280 228 232 236 233 255 263 272 281 287 296 301 306 307 310 314 304 296 307 315 315 321
294 283 287 301 312 323 328 332 330 333 331 314 250 192 177 171 171 165 162 174 292 246 199 228 254 249 255 262 271 272 287 291 295 302 305 307 305 310 300 300 303 304 308 327
336 344 339 334 338 343 350 346 346 349 358 1 169 167 165 165 162 170 231 306 246 218 241 245 247 251 255 257 274 289 292 293 295 306 306 305 297 297 291 293 303 307 308 316
346 346 349 349 351 355 350 355 0 23 74 117 148 160 165 168 192 289 273 194 247 257 141 202 235 253 246 280 284 291 298 303 307 310 306 299 293 290 284 287 299 300 302 310
346 350 354 356 0 3 14 36 56 87 109 122 130 155 233 243 286 251 202 266 52 107 127 234 259 247 272 326 299 304 317 319 318 317 313 307 296 289 278 286 292 283 289 294
343 343 341 345 348 4 31 73 155 194 210 263 297 299 276 272 205 145 159 131 112 41 352 285 191 253 324 318 317 315 314 314 314 315 318 316 315 306 300 292 291 282 287 294
339 334 326 322 319 291 252 295 303 309 304 294 287 264 215 199 180 130 120 105 100 48 173 200 272 310 344 339 330 322 319 314 313 319 311 307 303 301 298 298 292 283 278 282
333 341 334 296 264 252 275 273 275 275 262 177 131 119 115 111 111 124 140 153 128 114 56 318 318 323 339 334 342 337 333 323 320 319 310 300 287 286 286 287 285 286 276 264
0 49 57 66 55 53 69 81 104 104 110 99 83 73 77 84 98 139 125 146 115 321 329 331 323 323 334 339 337 336 336 329 333 326 327 321 316 306 300 294 291 282 282 293
Wind_Speed_850mb
10 8 12 14 15 12 17 22 18 29 19 9 17 15 11 5 3 7 12 16 20 20 21 25 27 22 12 15 18 15 14 15 17 20 15 14 17 19 22 22 23 24 24 24
15 10 14 17 18 18 21 24 24 25 23 6 17 14 13 7 4 8 12 17 18 19 20 24 23 16 11 15 15 13 12 10 13 17 18 18 15 10 10 11 18 26 36 29
20 3 12 19 25 21 18 18 20 21 17 19 20 19 12 7 6 8 11 16 18 18 19 20 16 10 10 12 11 10 10 12 14 15 16 18 17 13 8 11 12 17 19 23
9 6 20 7 2 9 17 24 20 22 14 18 19 14 11 6 5 7 9 14 15 16 17 14 9 10 11 13 8 8 10 10 13 12 14 17 16 16 15 12 11 12 13 18
10 16 14 25 12 9 12 16 11 18 15 21 14 12 17 11 9 8 8 10 12 12 10 9 9 13 12 11 9 8 6 7 11 12 14 17 18 18 18 16 15 18 17 19
6 14 21 21 8 8 7 19 10 20 21 26 22 17 9 12 12 11 9 9 10 10 9 9 12 12 11 14 8 7 5 7 9 10 14 18 19 19 20 19 20 18 23 26
11 14 16 15 11 15 14 4 8 19 24 29 23 18 10 11 13 14 13 12 11 9 10 11 11 11 10 10 9 9 7 11 13 16 23 20 23 23 22 22 24 26 26 28
6 14 22 8 12 15 15 7 3 15 24 33 32 19 19 17 17 17 17 15 14 13 14 13 11 10 12 11 10 7 9 13 15 18 20 18 22 21 20 19 22 25 26 29
7 15 4 3 30 15 18 17 8 13 23 31 31 31 27 26 25 22 22 20 18 16 16 13 11 10 12 15 11 11 12 12 13 17 16 18 19 18 18 21 24 28 30 33
5 15 12 21 21 28 30 33 26 17 22 28 34 30 31 30 30 28 27 25 20 18 16 14 12 10 12 12 12 12 15 14 14 13 20 16 16 18 20 22 24 28 30 33
14 24 18 5 10 17 25 25 28 34 32 33 34 35 33 33 35 35 31 27 23 22 19 16 14 11 11 11 12 11 12 15 16 15 17 17 19 20 20 19 19 18 21 25
20 13 9 22 21 34 31 24 20 23 26 33 37 40 37 38 38 40 37 31 27 24 22 21 17 14 12 12 10 12 13 14 17 16 19 20 23 22 24 21 23 30 28 29
20 7 28 42 46 38 22 22 26 24 26 33 38 42 43 44 43 44 41 35 29 27 23 18 18 17 16 10 11 10 15 12 13 18 20 22 22 21 20 18 22 27 32 43
28 41 46 43 34 36 36 36 34 32 33 34 38 42 45 46 45 45 43 35 27 21 15 12 18 21 12 9 6 9 9 13 14 17 22 22 21 20 19 19 25 26 31 35
57 46 46 48 40 40 41 43 44 43 42 42 41 43 44 50 48 45 40 34 29 28 28 24 14 17 10 13 13 9 9 10 13 17 18 21 17 20 23 22 24 28 31 35
52 47 39 42 52 54 52 52 52 53 50 47 44 44 44 44 44 45 42 35 33 27 16 11 11 9 7 13 12 12 9 12 14 12 16 20 23 27 31 27 26 27 35 36
50 51 53 53 49 47 48 49 48 49 50 46 46 43 39 38 39 43 39 36 30 21 25 16 17 20 16 20 16 10 10 12 12 14 22 23 27 32 34 29 30 27 35 34
48 48 46 45 45 48 49 47 45 45 47 47 42 35 33 38 41 39 33 30 32 31 23 25 25 13 18 20 12 13 16 14 19 26 29 27 34 39 32 30 25 35 32 31
30 33 34 34 32 35 38 41 42 41 41 36 30 24 25 28 35 33 32 32 27 20 19 21 22 22 23 22 21 16 18 22 26 28 31 33 38 38 32 26 31 33 30 31
8 10 13 15 17 18 23 23 26 25 20 13 8 15 26 32 31 28 28 18 29 20 21 14 14 21 22 23 24 18 22 26 31 34 37 42 39 35 31 28 26 26 25 28
11 12 13 14 16 18 20 20 19 16 12 1 11 21 26 26 25 25 15 27 10 13 19 15 11 14 13 15 18 19 24 29 32 41 47 48 41 30 32 29 31 32 28 26
17 15 14 15 17 17 21 19 14 9 10 11 13 17 19 19 18 19 13 10 7 8 1 3 4 13 11 15 12 18 21 30 39 46 44 43 40 39 33 33 32 28 24 23
16 18 18 16 17 15 15 14 13 11 16 14 9 4 10 17 18 9 14 3 6 6 8 6 7 7 5 7 13 19 25 32 36 36 38 35 35 37 31 30 29 21 22 24
18 18 17 15 12 6 4 2 4 6 5 8 19 15 14 17 14 8 12 11 16 15 9 12 6 3 12 13 17 22 29 32 34 32 35 35 34 35 35 35 32 26 29 29
18 18 15 13 11 7 7 6 9 14 19 24 18 9 11 14 21 22 21 15 12 3 6 8 7 12 13 15 18 22 25 28 27 30 34 36 39 40 39 38 32 35 27 30
15 11 6 11 9 12 16 20 25 24 19 13 25 33 35 33 34 16 12 7 11 12 7 9 14 19 19 22 22 23 25 27 31 33 38 39 41 43 38 36 39 39 33 28
10 7 9 14 14 9 6 9 16 31 37 38 33 31 32 25 14 6 9 6 0 6 11 16 23 28 27 27 25 27 26 29 34 43 42 38 40 44 43 43 44 38 46 49
Wind_Direction_850mb
274 263 241 277 268 216 248 280 276 303 316 155 185 181 172 165 352 347 352 350 352 348 347 346 347 347 351 6 357 6 5 6 22 16 2 326 305 288 276 290 278 260 261 266
255 229 240 251 263 261 272 281 281 274 273 151 170 178 187 190 255 322 347 344 342 338 338 341 340 336 341 0 354 358 358 5 2 3 7 12 9 349 302 279 262 260 282 274
266 172 254 251 260 285 276 275 265 269 334 154 178 202 199 204 256 318 329 333 335 332 335 331 335 331 335 348 338 344 0 353 358 19 27 24 22 23 0 314 292 295 292 296
287 219 246 340 73 281 280 281 265 256 266 194 193 195 203 218 289 295 311 324 327 327 327 320 316 314 323 327 316 336 355 9 26 30 23 17 16 10 2 341 323 308 298 287
245 242 284 285 184 226 233 290 236 246 210 194 187 202 222 226 235 257 285 305 314 316 313 303 295 309 313 311 298 325 345 19 17 2 348 351 352 354 347 340 326 314 304 299
169 274 279 305 126 186 196 265 144 206 203 198 193 231 143 184 220 233 253 274 292 290 294 301 292 302 302 297 286 310 320 350 344 340 336 330 328 326 324 322 321 308 299 296
247 276 289 335 158 162 239 28 127 193 207 203 210 262 132 182 211 222 237 254 267 266 286 283 275 284 294 292 277 281 294 328 324 324 331 329 329 323 317 312 306 303 301 301
219 268 282 58 159 241 2 339 266 212 210 211 220 220 210 214 221 227 234 247 254 256 274 269 269 276 291 286 264 298 314 317 317 319 324 320 330 330 320 317 320 315 315 318
272 306 47 237 252 262 281 294 306 276 232 222 224 228 229 230 229 232 236 245 247 252 266 267 267 273 288 292 280 277 301 305 313 321 323 330 334 334 338 325 324 322 322 320
281 269 273 285 292 269 277 266 280 279 263 236 234 241 239 239 236 236 238 239 242 245 254 255 257 273 280 280 280 276 287 299 309 317 324 330 338 325 327 326 324 323 328 330
255 266 290 136 12 350 329 300 279 269 273 244 241 248 248 247 243 241 239 238 232 237 242 240 250 269 273 277 273 269 273 285 298 309 309 319 322 322 331 325 332 347 341 342
273 12 305 297 313 320 312 311 302 285 267 253 246 251 253 251 248 241 235 232 229 232 230 231 239 256 265 261 260 265 271 290 295 307 312 318 320 324 323 331 350 354 355 349
261 278 301 292 297 299 282 297 300 288 273 264 257 256 257 255 250 241 231 227 225 231 231 238 253 265 269 258 273 262 280 293 308 314 316 320 316 318 319 324 333 337 338 335
273 296 290 287 296 293 290 299 301 292 283 273 266 261 257 254 248 237 228 224 220 220 227 249 274 277 271 303 326 305 287 302 322 317 315 316 318 311 310 314 321 329 339 339
275 277 273 278 286 286 289 292 289 287 287 282 277 269 262 252 243 231 220 211 203 202 202 196 234 272 299 344 330 292 301 310 314 316 314 315 311 308 301 309 315 321 329 331
272 274 270 273 283 287 287 289 286 286 282 282 279 272 261 249 240 222 209 195 193 194 221 201 186 224 327 329 282 282 298 309 320 322 324 322 320 309 305 308 311 319 325 329
273 271 277 282 283 285 286 285 282 279 279 278 279 278 260 233 217 210 194 191 187 177 159 170 188 219 278 240 249 264 280 288 322 322 322 318 320 315 309 309 310 324 322 321
262 265 269 273 280 286 289 290 290 290 288 286 282 270 243 219 206 193 169 158 158 167 220 262 236 235 234 225 248 269 286 286 297 303 301 307 318 316 306 303 302 314 319 320
261 261 268 278 286 288 291 296 300 299 298 293 280 251 222 209 191 173 162 166 169 250 280 228 232 236 233 255 263 272 281 287 296 301 306 307 310 314 304 296 307 315 315 321
294 283 287 301 312 323 328 332 330 333 331 314 250 192 177 171 171 165 162 174 292 246 199 228 254 249 255 262 271 272 287 291 295 302 305 307 305 310 300 300 303 304 308 327
336 344 339 334 338 343 350 346 346 349 358 1 169 167 165 165 162 170 231 306 246 218 241 245 247 251 255 257 274 289 292 293 295 306 306 305 297 297 291 293 303 307 308 316
346 346 349 349 351 355 350 355 0 23 74 117 148 160 165 168 192 289 273 194 247 257 141 202 235 253 246 280 284 291 298 303 307 310 306 299 293 290 284 287 299 300 302 310
346 350 354 356 0 3 14 36 56 87 109 122 130 155 233 243 286 251 202 266 52 107 127 234 259 247 272 326 299 304 317 319 318 317 313 307 296 289 278 286 292 283 289 294
343 343 341 345 348 4 31 73 155 194 210 263 297 299 276 272 205 145 159 131 112 41 352 285 191 253 324 318 317 315 314 314 314 315 318 316 315 306 300 292 291 282 287 294
339 334 326 322 319 291 252 295 303 309 304 294 287 264 215 199 180 130 120 105 100 48 173 200 272 310 344 339 330 322 319 314 313 319 311 307 303 301 298 298 292 283 278 282
333 341 334 296 264 252 275 273 275 275 262 177 131 119 115 111 111 124 140 153 128 114 56 318 318 323 339 334 342 337 333 323 320 319 310 300 287 286 286 287 285 286 276 264
0 49 57 66 55 53 69 81 104 104 110 99 83 73 77 84 98 139 125 146 115 321 329 331 323 323 334 339 337 336 336 329 333 326 327 321 316 306 300 294 291 282 282 293